Regional Weather Roundup
Issued by NWS Charleston, WV

Home | Current Version | Previous Version | Text Only | Print | Product List | Glossary Off
Versions: 1 2 3 4 5 6 7 8 9 10 11 12 13 14 15 16 17 18 19 20 21 22 23 24 25 26 27 28 29 30 31 32 33 34 35 36 37 38 39 40 41 42 43 44 45 46 47 48 49 50

363
ASUS41 KRLX 191110
RWRRLX
West Virginia Regional Weather Roundup
National Weather Service Charleston WV
600 AM EST MON FEB 19 2018

Note: "fair" indicates few or no clouds below 12,000 feet with no
significant weather and/or obstructions to visibility.

WVZ003-191200-
Northern Panhandle of West Virginia

CITY           SKY/WX    TMP DP  RH WIND       PRES   REMARKS
WHEELING       CLOUDY    46  36  68 S14       30.15F
$$

WVZ009-191200-
Northwest West Virginia

CITY           SKY/WX    TMP DP  RH WIND       PRES   REMARKS
PARKERSBURG    CLOUDY    50  40  68 S9        30.19S
$$

WVZ006-191200-
Western West Virginia

CITY           SKY/WX    TMP DP  RH WIND       PRES   REMARKS
HUNTINGTON     LGT RAIN  48  43  82 S6        30.17S
$$

WVZ015-191200-
West Central West Virginia

CITY           SKY/WX    TMP DP  RH WIND       PRES   REMARKS
CHARLESTON     CLOUDY    50  45  83 CALM      30.20R
$$

WVZ022-031-191200-
North Central West Virginia

CITY           SKY/WX    TMP DP  RH WIND       PRES   REMARKS
CLARKSBURG     CLOUDY    46  39  76 S3        30.21S
MORGANTOWN     CLOUDY    52  41  66 S7        30.20S
$$

WVZ025-035-042-045-191200-
Southern West Virginia

CITY           SKY/WX    TMP DP  RH WIND       PRES   REMARKS
BECKLEY        LGT RAIN  43  40  89 SE15G23   30.28R
LOGAN          CLOUDY    52  46  82 S10G18    30.23F
BLUEFIELD      CLOUDY    47  40  76 S8        30.30F
LEWISBURG      CLOUDY    38  37  97 NE7       30.35S
$$

WVZ047-191200-
Northern Mountains of West Virginia

CITY           SKY/WX    TMP DP  RH WIND       PRES   REMARKS
ELKINS         CLOUDY    44  39  82 SE12      30.27R
$$

WVZ052-191200-
Eastern Panhandle of West Virginia

CITY           SKY/WX    TMP DP  RH WIND       PRES   REMARKS
MARTINSBURG    LGT RAIN  40  33  76 S10       30.39R
PETERSBURG     CLOUDY    44  39  82 SE12      30.33S
$$




USA.gov is the U.S. government's official web portal to all federal, state and local government web resources and services.